Time,TemperatureF,DewpointF,PressureIn,WindDirection,WindDirectionDegrees,WindSpeedMPH,WindSpeedGustMPH,Humidity,HourlyPrecipIn,Conditions,Clouds,dailyrainin,SoftwareType,DateUTC
2013-02-06 00:11:00,10.0,5.0,29.88,NW,326,1.0,8.0,80,0.00,,,0.00,weatherlink.com 1.10,2013-02-06 05:11:00,
2013-02-06 00:26:00,9.2,4.0,29.89,NW,322,0.0,6.0,80,0.00,,,0.00,weatherlink.com 1.10,2013-02-06 05:26:00,
2013-02-06 00:41:00,8.2,4.0,29.90,NW,319,1.0,6.0,81,0.00,,,0.00,weatherlink.com 1.10,2013-02-06 05:41:00,
2013-02-06 00:56:00,7.6,2.0,29.91,NNW,342,1.0,6.0,79,0.00,,,0.00,weatherlink.com 1.10,2013-02-06 05:56:00,
2013-02-06 01:11:00,6.6,2.0,29.92,WSW,253,0.0,3.0,80,0.00,,,0.00,weatherlink.com 1.10,2013-02-06 06:11:00,
2013-02-06 01:26:00,5.5,1.0,29.93,West,271,0.0,1.0,83,0.00,,,0.00,weatherlink.com 1.10,2013-02-06 06:26:00,
2013-02-06 01:41:00,4.7,1.0,29.93,West,280,1.0,1.0,84,0.00,,,0.00,weatherlink.com 1.10,2013-02-06 06:41:00,
2013-02-06 01:57:00,3.5,0.0,29.94,West,271,0.0,1.0,86,0.00,,,0.00,weatherlink.com 1.10,2013-02-06 06:57:00,
2013-02-06 02:12:00,2.9,-1.0,29.95,WSW,246,1.0,3.0,85,0.00,,,0.00,weatherlink.com 1.10,2013-02-06 07:12:00,
2013-02-06 02:27:00,2.5,-1.0,29.96,West,262,0.0,3.0,85,0.00,,,0.00,weatherlink.com 1.10,2013-02-06 07:27:00,
2013-02-06 02:42:00,2.3,-1.0,29.96,West,260,1.0,2.0,85,0.00,,,0.00,weatherlink.com 1.10,2013-02-06 07:42:00,
2013-02-06 02:57:00,1.6,-2.0,29.98,WSW,250,0.0,2.0,84,0.00,,,0.00,weatherlink.com 1.10,2013-02-06 07:57:00,
2013-02-06 03:12:00,-0.1,-5.0,29.99,ESE,114,2.0,2.0,80,0.00,,,0.00,weatherlink.com 1.10,2013-02-06 08:12:00,
2013-02-06 03:27:00,-3.3,-6.0,29.99,ESE,120,0.0,0.0,87,0.00,,,0.00,weatherlink.com 1.10,2013-02-06 08:27:00,
2013-02-06 03:42:00,-3.7,-7.0,30.00,ESE,120,0.0,0.0,87,0.00,,,0.00,weatherlink.com 1.10,2013-02-06 08:42:00,
2013-02-06 03:57:00,-7.8,-12.0,30.00,SE,129,0.0,2.0,80,0.00,,,0.00,weatherlink.com 1.10,2013-02-06 08:57:00,
2013-02-06 04:12:00,-7.2,-9.0,30.00,SE,129,0.0,1.0,90,0.00,,,0.00,weatherlink.com 1.10,2013-02-06 09:12:00,
2013-02-06 04:27:00,-6.4,-9.0,30.00,West,276,0.0,0.0,89,0.00,,,0.00,weatherlink.com 1.10,2013-02-06 09:27:00,
2013-02-06 04:42:00,-6.5,-9.0,30.01,SSW,205,0.0,0.0,88,0.00,,,0.00,weatherlink.com 1.10,2013-02-06 09:42:00,
2013-02-06 04:57:00,-8.4,-11.0,30.02,South,176,0.0,0.0,87,0.00,,,0.00,weatherlink.com 1.10,2013-02-06 09:57:00,
2013-02-06 05:13:00,-11.8,-16.0,30.02,ESE,122,0.0,2.0,83,0.00,,,0.00,weatherlink.com 1.10,2013-02-06 10:13:00,
2013-02-06 05:28:00,-12.7,-16.0,30.03,ESE,123,0.0,0.0,85,0.00,,,0.00,weatherlink.com 1.10,2013-02-06 10:28:00,
2013-02-06 05:43:00,-12.2,-15.0,30.04,ESE,123,0.0,0.0,87,0.00,,,0.00,weatherlink.com 1.10,2013-02-06 10:43:00,
2013-02-06 05:58:00,-13.1,-16.0,30.05,ENE,60,0.0,2.0,85,0.00,,,0.00,weatherlink.com 1.10,2013-02-06 10:58:00,
2013-02-06 06:13:00,-13.0,-16.0,30.05,SE,125,0.0,0.0,86,0.00,,,0.00,weatherlink.com 1.10,2013-02-06 11:13:00,
2013-02-06 06:28:00,-12.8,-16.0,30.06,SE,125,0.0,0.0,86,0.00,,,0.00,weatherlink.com 1.10,2013-02-06 11:28:00,
2013-02-06 06:43:00,-14.4,-18.0,30.06,SE,125,0.0,0.0,84,0.00,,,0.00,weatherlink.com 1.10,2013-02-06 11:43:00,
2013-02-06 06:58:00,-14.6,-18.0,30.07,SE,126,0.0,0.0,85,0.00,,,0.00,weatherlink.com 1.10,2013-02-06 11:58:00,
2013-02-06 07:13:00,-13.2,-16.0,30.08,SE,125,0.0,0.0,86,0.00,,,0.00,weatherlink.com 1.10,2013-02-06 12:13:00,
2013-02-06 07:28:00,-13.0,-16.0,30.10,SE,125,0.0,0.0,85,0.00,,,0.00,weatherlink.com 1.10,2013-02-06 12:28:00,
2013-02-06 07:43:00,-10.8,-13.0,30.10,SE,125,0.0,0.0,88,0.00,,,0.00,weatherlink.com 1.10,2013-02-06 12:43:00,
2013-02-06 07:58:00,-9.4,-12.0,30.11,SE,129,0.0,1.0,87,0.00,,,0.00,weatherlink.com 1.10,2013-02-06 12:58:00,
2013-02-06 08:13:00,-7.9,-11.0,30.12,SE,129,0.0,0.0,87,0.00,,,0.00,weatherlink.com 1.10,2013-02-06 13:13:00,
2013-02-06 08:28:00,-6.8,-10.0,30.13,SE,129,0.0,0.0,87,0.00,,,0.00,weatherlink.com 1.10,2013-02-06 13:28:00,
2013-02-06 08:44:00,-5.5,-8.0,30.13,SE,129,0.0,0.0,87,0.00,,,0.00,weatherlink.com 1.10,2013-02-06 13:44:00,
2013-02-06 08:59:00,-4.3,-7.0,30.13,SE,129,0.0,0.0,87,0.00,,,0.00,weatherlink.com 1.10,2013-02-06 13:59:00,
2013-02-06 09:14:00,-2.8,-6.0,30.14,SE,128,0.0,0.0,88,0.00,,,0.00,weatherlink.com 1.10,2013-02-06 14:14:00,
2013-02-06 09:29:00,-3.0,-6.0,30.14,North,4,0.0,1.0,86,0.00,,,0.00,weatherlink.com 1.10,2013-02-06 14:29:00,
2013-02-06 09:44:00,-1.8,-5.0,30.14,North,4,0.0,0.0,87,0.00,,,0.00,weatherlink.com 1.10,2013-02-06 14:44:00,
2013-02-06 09:59:00,0.3,-3.0,30.15,North,4,0.0,0.0,87,0.00,,,0.00,weatherlink.com 1.10,2013-02-06 14:59:00,
2013-02-06 10:14:00,1.1,-2.0,30.15,North,7,0.0,0.0,87,0.00,,,0.00,weatherlink.com 1.10,2013-02-06 15:14:00,
2013-02-06 10:29:00,3.7,1.0,30.15,North,7,0.0,0.0,87,0.00,,,0.00,weatherlink.com 1.10,2013-02-06 15:29:00,
2013-02-06 10:44:00,5.3,3.0,30.16,North,7,0.0,0.0,88,0.00,,,0.00,weatherlink.com 1.10,2013-02-06 15:44:00,
2013-02-06 10:59:00,6.0,0.0,30.16,North,7,0.0,0.0,76,0.00,,,0.00,weatherlink.com 1.10,2013-02-06 15:59:00,
2013-02-06 11:14:00,5.4,-2.0,30.16,East,95,4.0,5.0,72,0.00,,,0.00,weatherlink.com 1.10,2013-02-06 16:14:00,
2013-02-06 11:29:00,5.4,-2.0,30.17,ENE,70,4.0,5.0,72,0.00,,,0.00,weatherlink.com 1.10,2013-02-06 16:29:00,
2013-02-06 11:44:00,5.7,-2.0,30.17,ENE,72,3.0,5.0,71,0.00,,,0.00,weatherlink.com 1.10,2013-02-06 16:44:00,
2013-02-06 12:00:00,6.1,-1.0,30.17,NE,51,3.0,4.0,72,0.00,,,0.00,weatherlink.com 1.10,2013-02-06 17:00:00,
2013-02-06 12:15:00,6.8,-1.0,30.17,ENE,77,5.0,6.0,71,0.00,,,0.00,weatherlink.com 1.10,2013-02-06 17:15:00,
2013-02-06 12:30:00,7.0,-1.0,30.17,NE,40,4.0,6.0,69,0.00,,,0.00,weatherlink.com 1.10,2013-02-06 17:30:00,
2013-02-06 12:45:00,7.5,0.0,30.17,ENE,74,4.0,5.0,71,0.00,,,0.00,weatherlink.com 1.10,2013-02-06 17:45:00,
2013-02-06 13:00:00,7.9,1.0,30.18,ENE,78,5.0,5.0,73,0.00,,,0.00,weatherlink.com 1.10,2013-02-06 18:00:00,
2013-02-06 13:15:00,7.9,1.0,30.17,ENE,71,5.0,6.0,72,0.00,,,0.00,weatherlink.com 1.10,2013-02-06 18:15:00,
2013-02-06 13:30:00,8.1,1.0,30.17,ENE,71,3.0,5.0,72,0.00,,,0.00,weatherlink.com 1.10,2013-02-06 18:30:00,
2013-02-06 13:45:00,8.6,2.0,30.17,ENE,70,3.0,5.0,73,0.00,,,0.00,weatherlink.com 1.10,2013-02-06 18:45:00,
2013-02-06 14:00:00,8.8,2.0,30.16,ENE,69,4.0,5.0,74,0.00,,,0.00,weatherlink.com 1.10,2013-02-06 19:00:00,
2013-02-06 14:15:00,8.8,2.0,30.16,ENE,74,5.0,6.0,73,0.00,,,0.00,weatherlink.com 1.10,2013-02-06 19:15:00,
2013-02-06 14:30:00,9.0,2.0,30.15,ENE,74,3.0,5.0,74,0.00,,,0.00,weatherlink.com 1.10,2013-02-06 19:30:00,
2013-02-06 14:45:00,9.4,3.0,30.16,ENE,78,3.0,5.0,74,0.00,,,0.00,weatherlink.com 1.10,2013-02-06 19:45:00,
2013-02-06 15:00:00,9.6,3.0,30.16,ENE,72,3.0,5.0,75,0.00,,,0.00,weatherlink.com 1.10,2013-02-06 20:00:00,
2013-02-06 15:15:00,9.8,4.0,30.16,ENE,69,3.0,5.0,76,0.00,,,0.00,weatherlink.com 1.10,2013-02-06 20:15:00,
2013-02-06 15:31:00,9.6,4.0,30.17,ENE,69,3.0,5.0,76,0.00,,,0.00,weatherlink.com 1.10,2013-02-06 20:31:00,
2013-02-06 15:46:00,9.6,4.0,30.16,ENE,63,3.0,4.0,76,0.00,,,0.00,weatherlink.com 1.10,2013-02-06 20:46:00,
2013-02-06 16:01:00,9.3,3.0,30.16,NE,50,3.0,5.0,76,0.00,,,0.00,weatherlink.com 1.10,2013-02-06 21:01:00,
2013-02-06 16:16:00,8.9,3.0,30.17,NE,54,4.0,5.0,78,0.00,,,0.00,weatherlink.com 1.10,2013-02-06 21:16:00,
2013-02-06 16:31:00,8.7,3.0,30.17,NE,41,5.0,5.0,78,0.00,,,0.00,weatherlink.com 1.10,2013-02-06 21:31:00,
2013-02-06 16:46:00,8.5,3.0,30.17,NE,47,5.0,5.0,78,0.00,,,0.00,weatherlink.com 1.10,2013-02-06 21:46:00,
2013-02-06 17:01:00,8.3,3.0,30.17,NE,51,4.0,5.0,79,0.00,,,0.00,weatherlink.com 1.10,2013-02-06 22:01:00,
2013-02-06 17:16:00,8.1,3.0,30.17,ENE,67,4.0,5.0,79,0.00,,,0.00,weatherlink.com 1.10,2013-02-06 22:16:00,
2013-02-06 17:31:00,8.3,3.0,30.18,East,95,2.0,4.0,79,0.00,,,0.00,weatherlink.com 1.10,2013-02-06 22:31:00,
2013-02-06 17:46:00,8.2,3.0,30.18,ENE,68,2.0,3.0,80,0.00,,,0.00,weatherlink.com 1.10,2013-02-06 22:46:00,
2013-02-06 18:01:00,8.1,3.0,30.18,ENE,63,3.0,4.0,81,0.00,,,0.00,weatherlink.com 1.10,2013-02-06 23:01:00,
2013-02-06 18:16:00,8.0,4.0,30.18,NE,51,4.0,5.0,82,0.00,,,0.00,weatherlink.com 1.10,2013-02-06 23:16:00,
2013-02-06 18:31:00,7.9,4.0,30.18,NE,53,3.0,3.0,82,0.00,,,0.00,weatherlink.com 1.10,2013-02-06 23:31:00,
2013-02-06 18:46:00,7.9,4.0,30.18,East,84,4.0,5.0,82,0.00,,,0.00,weatherlink.com 1.10,2013-02-06 23:46:00,
2013-02-06 19:17:00,8.0,4.0,30.19,East,80,1.0,3.0,83,0.00,,,0.00,weatherlink.com 1.10,2013-02-07 00:17:00,
2013-02-06 19:32:00,8.1,4.0,30.18,ENE,71,4.0,5.0,83,0.00,,,0.00,weatherlink.com 1.10,2013-02-07 00:32:00,
2013-02-06 19:47:00,8.3,4.0,30.18,ENE,57,2.0,3.0,83,0.00,,,0.00,weatherlink.com 1.10,2013-02-07 00:47:00,
2013-02-06 20:02:00,8.5,4.0,30.18,East,99,3.0,5.0,83,0.00,,,0.00,weatherlink.com 1.10,2013-02-07 01:02:00,
2013-02-06 20:17:00,8.7,5.0,30.19,SE,125,3.0,5.0,84,0.00,,,0.00,weatherlink.com 1.10,2013-02-07 01:17:00,
2013-02-06 20:32:00,8.8,5.0,30.20,ENE,72,3.0,4.0,85,0.00,,,0.00,weatherlink.com 1.10,2013-02-07 01:32:00,
2013-02-06 20:47:00,8.8,6.0,30.20,East,101,3.0,5.0,86,0.00,,,0.00,weatherlink.com 1.10,2013-02-07 01:47:00,
2013-02-06 21:02:00,8.9,6.0,30.20,ENE,69,2.0,3.0,86,0.00,,,0.00,weatherlink.com 1.10,2013-02-07 02:02:00,
2013-02-06 21:17:00,9.1,6.0,30.20,NE,56,4.0,5.0,86,0.00,,,0.00,weatherlink.com 1.10,2013-02-07 02:17:00,
2013-02-06 21:32:00,9.2,6.0,30.20,ENE,75,1.0,3.0,87,0.00,,,0.00,weatherlink.com 1.10,2013-02-07 02:32:00,
2013-02-06 21:47:00,9.3,7.0,30.20,NE,46,3.0,5.0,88,0.00,,,0.00,weatherlink.com 1.10,2013-02-07 02:47:00,
2013-02-06 22:02:00,9.3,7.0,30.20,NE,48,2.0,4.0,88,0.00,,,0.00,weatherlink.com 1.10,2013-02-07 03:02:00,
2013-02-06 22:17:00,9.5,7.0,30.20,East,96,3.0,5.0,88,0.00,,,0.00,weatherlink.com 1.10,2013-02-07 03:17:00,
2013-02-06 22:33:00,9.6,7.0,30.20,ENE,57,5.0,5.0,88,0.00,,,0.00,weatherlink.com 1.10,2013-02-07 03:33:00,
2013-02-06 22:48:00,9.6,7.0,30.20,ENE,70,4.0,5.0,88,0.00,,,0.00,weatherlink.com 1.10,2013-02-07 03:48:00,
2013-02-06 23:03:00,9.8,7.0,30.20,ENE,75,4.0,6.0,88,0.00,,,0.00,weatherlink.com 1.10,2013-02-07 04:03:00,
2013-02-06 23:18:00,9.8,7.0,30.20,NE,51,7.0,9.0,88,0.00,,,0.00,weatherlink.com 1.10,2013-02-07 04:18:00,
2013-02-06 23:33:00,9.9,7.0,30.19,ENE,70,3.0,7.0,89,0.00,,,0.00,weatherlink.com 1.10,2013-02-07 04:33:00,
2013-02-06 23:48:00,10.0,7.0,30.19,ENE,70,5.0,6.0,89,0.00,,,0.00,weatherlink.com 1.10,2013-02-07 04:48:00,